Probability
12 11 11 11 10 10 9 7 6 6 7 8 10 11 12 12 11 11 11 12 12 13 13 12 10 10 9 7 6 7 9 8 7 7 7 5 3 3 3 2 1 0 0
13 13 14 14 13 11 11 10 9 9 9 10 9 10 11 12 13 13 13 14 14 13 13 12 11 9 8 7 6 8 10 11 10 10 8 6 4 3 3 3 1 1 0
13 15 17 18 16 14 13 13 12 10 10 11 10 10 11 13 14 14 14 14 13 13 13 12 11 9 7 6 7 9 11 12 12 11 9 7 5 3 3 3 3 2 1
11 13 15 17 17 16 14 13 12 12 11 12 12 12 13 14 14 14 13 13 12 12 13 12 11 9 8 8 10 11 11 11 10 10 10 9 6 4 3 3 3 3 3
10 11 12 14 17 16 13 12 12 13 13 13 13 12 13 12 12 12 12 12 12 12 13 13 12 11 10 10 11 11 10 10 9 10 10 9 6 4 3 3 3 3 3
12 12 13 13 15 15 13 11 11 12 13 13 12 11 11 11 10 10 10 11 13 14 14 14 14 12 11 11 10 10 9 9 9 9 9 9 6 4 4 3 3 3 3
14 13 13 12 12 13 13 12 11 11 12 12 11 10 9 9 8 8 8 9 12 14 15 15 14 12 11 11 10 9 9 9 8 8 8 7 6 5 4 3 3 3 3
13 13 11 10 11 12 12 11 10 10 10 11 10 9 8 7 7 6 7 8 11 12 12 11 11 10 9 9 9 9 9 9 9 7 5 4 4 3 3 3 3 3 2
12 12 11 10 10 10 10 9 9 9 10 10 9 8 7 6 4 4 5 8 9 9 8 6 6 6 6 6 7 7 8 9 8 6 3 1 1 1 2 2 2 2 2
10 10 9 8 8 8 8 8 8 9 10 10 9 9 8 5 3 3 5 8 8 6 4 3 3 3 3 3 4 5 6 7 6 4 2 1 0 0 0 0 0 1 1
10 9 8 6 6 7 6 6 8 9 10 11 10 9 8 5 3 3 4 6 6 4 3 3 2 1 1 1 1 3 3 4 4 3 3 2 1 0 0 0 0 0 0
11 10 7 5 4 6 6 6 7 9 10 10 10 9 7 4 2 2 2 2 2 3 3 2 1 0 0 0 0 1 1 1 3 3 3 3 2 1 0 0 0 0 0
12 10 7 4 4 6 7 7 8 9 9 9 9 7 5 2 1 0 0 0 1 2 2 1 0 0 0 0 0 0 0 1 2 3 3 3 2 1 0 0 0 0 0
10 8 5 5 6 8 9 9 9 10 8 7 6 4 2 0 0 0 0 0 0 1 1 0 0 0 0 0 0 0 0 0 1 3 3 3 2 1 0 0 0 0 0
7 6 6 7 10 12 11 10 9 9 8 5 3 1 0 0 0 0 0 0 0 0 0 0 1 1 2 1 0 0 0 1 1 3 3 3 2 1 0 0 0 0 0
4 4 5 8 11 13 11 9 7 6 4 2 1 0 0 0 0 0 0 0 0 0 1 1 1 2 2 1 0 0 1 2 3 3 3 3 1 0 0 0 0 0 0
3 3 4 6 9 10 10 8 6 4 2 1 0 0 0 0 0 0 0 0 0 0 1 1 1 1 1 1 0 0 1 2 3 3 3 2 1 0 0 0 0 0 0
2 2 2 4 6 7 7 6 5 3 3 2 1 1 0 0 0 0 0 0 0 0 1 1 0 0 0 0 0 0 1 2 3 3 3 2 1 0 0 0 0 0 0
1 1 1 2 4 5 5 4 3 3 3 3 3 2 1 0 0 0 0 0 0 0 0 0 0 0 0 0 0 0 1 2 3 3 3 1 0 0 0 0 0 0 0
0 0 0 1 1 2 3 3 3 4 4 4 3 3 2 1 1 1 0 0 0 0 0 0 0 0 0 0 0 0 1 2 3 3 2 1 0 0 0 0 0 0 0
0 0 0 0 0 0 1 1 2 3 4 4 3 2 2 2 2 1 0 0 0 0 0 0 0 0 0 0 0 0 1 2 2 2 1 0 0 0 0 0 0 0 0
0 0 0 0 0 0 0 0 0 1 2 1 1 1 1 1 1 1 0 0 0 0 0 0 0 0 0 0 0 0 0 1 1 1 0 0 0 0 0 0 0 0 0
0 0 0 0 0 0 0 0 0 0 0 0 0 1 0 0 0 0 0 0 0 0 0 0 0 0 0 0 0 0 0 0 0 0 0 0 0 0 0 0 0 0 0
0 0 0 0 0 0 0 0 0 0 0 0 0 0 0 0 0 0 0 0 0 0 0 0 0 0 0 0 0 0 0 0 0 0 0 0 0 0 0 0 0 0 0
0 0 0 0 0 0 0 0 0 0 0 0 0 0 0 0 0 0 0 0 0 0 0 0 0 0 0 0 0 0 0 0 0 0 0 0 0 0 0 0 0 0 0
0 0 0 0 0 0 0 0 0 0 0 0 0 0 0 0 0 0 0 0 0 0 0 0 0 0 0 0 0 0 0 0 0 0 0 0 0 0 0 0 0 0 0
Wind_Speed
4 3 3 2 2 2 2 2 2 2 2 2 1 1 2 1 1 1 2 2 2 2 2 3 3 3 2 2 2 2 2 3 4 3 2 2 2 3 2 3 3 3 3
4 4 3 3 2 2 3 3 3 2 2 2 1 1 2 1 1 2 3 2 3 3 4 3 3 2 3 2 2 2 3 3 4 5 3 2 3 3 2 3 3 3 3
4 4 3 3 3 3 3 3 2 2 2 1 1 1 2 2 2 3 3 3 4 4 4 4 4 3 3 3 3 3 3 3 3 3 4 2 2 2 2 2 3 2 3
3 3 3 3 3 2 2 2 2 2 2 2 2 2 2 2 2 3 3 3 4 4 4 4 4 4 5 4 3 4 3 2 2 3 3 3 2 2 2 2 2 2 3
3 3 2 2 2 2 2 2 2 3 3 2 2 2 2 2 2 3 3 3 4 4 4 4 5 5 6 4 3 3 3 2 2 2 3 2 2 2 2 2 3 3 3
3 2 2 2 2 2 2 3 3 3 2 1 1 2 2 3 3 3 3 3 3 4 4 4 5 5 5 5 5 5 5 4 4 3 3 4 4 3 3 2 2 2 3
2 1 1 1 2 3 2 2 2 2 2 2 2 2 3 4 4 4 4 3 3 3 4 3 3 3 4 4 5 5 5 6 6 5 5 5 5 4 3 3 3 3 4
2 2 2 2 3 2 2 2 2 1 1 2 2 2 2 4 4 4 4 3 3 3 3 3 3 4 4 3 3 4 4 5 6 5 5 6 5 4 5 4 4 3 3
3 3 2 2 2 2 2 3 2 1 2 2 2 2 2 4 4 4 3 2 2 3 3 3 3 3 4 3 3 4 4 4 4 5 6 5 5 4 3 2 2 2 3
4 3 3 2 2 3 3 3 2 2 2 2 2 2 2 3 4 4 3 1 2 3 3 2 3 4 4 3 3 3 4 4 3 3 3 3 3 3 4 4 4 3 2
3 2 2 2 3 3 3 2 2 2 2 1 2 2 2 2 3 3 3 1 2 3 2 2 2 4 4 4 3 3 4 4 2 2 2 2 2 2 2 3 3 4 3
2 2 2 2 3 3 2 2 2 2 2 2 2 2 2 2 2 3 3 3 2 1 2 2 2 4 4 3 2 2 3 2 1 1 1 2 2 2 2 2 3 3 4
2 2 3 2 2 2 2 2 2 2 2 2 2 2 2 2 2 3 3 3 3 1 2 3 3 3 2 2 2 2 1 1 1 1 2 2 2 2 2 2 2 2 3
2 2 2 2 2 2 1 2 2 2 3 2 2 3 3 2 2 2 2 2 2 2 2 2 2 2 1 2 2 2 1 1 1 2 2 2 2 2 2 2 2 2 2
2 2 2 2 2 2 2 2 3 3 4 4 4 3 3 3 4 3 2 2 2 2 1 1 1 1 2 2 2 2 1 1 1 1 2 2 2 2 2 1 1 1 2
1 2 2 2 2 1 1 2 2 3 3 4 4 4 3 4 4 3 3 3 2 1 1 0 1 1 1 2 2 2 2 2 2 2 2 2 2 2 2 2 1 2 2
2 2 2 2 2 2 2 2 2 2 1 2 3 4 4 4 4 3 3 2 1 1 1 1 1 1 2 2 2 2 2 2 2 1 2 2 2 2 2 2 2 2 2
2 2 2 2 2 2 2 2 2 2 2 2 2 4 5 5 4 3 2 0 0 0 1 1 2 2 2 2 2 2 2 2 1 1 2 2 2 2 2 2 2 2 2
1 1 2 2 2 2 2 2 2 3 3 2 2 2 3 3 2 2 3 2 2 2 2 2 2 2 2 2 2 2 2 1 2 2 2 2 2 1 1 2 1 2 2
1 3 2 2 1 1 2 2 2 2 3 3 3 3 1 1 1 2 2 2 3 3 3 3 3 2 2 2 2 2 2 2 2 2 2 2 2 1 2 1 1 1 1
1 1 2 1 1 1 2 2 2 2 3 3 3 3 3 3 3 3 3 3 3 3 3 2 2 2 2 2 2 2 2 2 2 2 2 2 1 1 1 1 1 1 1
1 1 1 1 1 1 2 2 2 2 3 3 3 2 3 2 2 2 3 3 3 3 2 2 2 2 2 2 2 2 2 2 2 2 2 1 1 1 1 1 1 1 1
1 1 1 1 1 2 2 1 2 2 2 2 2 2 1 2 2 2 3 3 2 2 2 1 1 1 2 2 2 2 2 2 3 2 1 1 1 1 1 1 1 1 1
1 1 1 1 1 1 1 2 2 2 2 2 2 2 2 2 2 2 2 2 1 1 1 1 1 2 2 2 1 1 2 2 2 2 2 1 1 1 1 1 1 1 1
1 1 1 1 1 2 2 2 2 2 2 2 2 1 1 1 1 1 1 1 1 1 1 1 1 2 2 2 2 1 1 1 1 1 1 1 1 0 1 1 1 1 1
1 1 1 1 1 1 2 2 2 2 2 2 1 1 1 1 1 1 1 1 1 1 1 1 1 1 1 1 1 1 1 1 1 1 1 1 1 0 0 1 1 1 1
Wind_Direction
186 185 189 192 195 197 211 233 236 233 231 234 233 232 244 255 259 240 246 232 231 248 253 242 248 248 249 251 240 233 232 222 248 271 269 279 256 259 274 263 260 255 255
183 179 189 195 195 208 228 240 238 232 226 225 228 231 242 252 250 242 252 248 238 245 250 245 254 252 252 256 249 248 242 231 237 264 275 275 265 264 268 269 278 273 267
174 183 190 197 210 227 243 250 247 245 245 232 223 241 249 247 245 249 250 256 250 250 250 248 253 252 256 260 255 252 246 243 233 248 265 263 269 271 281 278 277 281 277
167 178 198 210 219 230 236 248 254 251 249 254 242 245 250 245 243 246 253 260 257 256 255 252 254 249 249 254 255 251 248 247 246 248 260 262 263 266 251 264 281 278 279
166 177 209 226 213 205 216 240 248 246 247 244 246 259 257 246 251 255 252 260 256 257 259 258 256 256 258 256 260 250 236 240 247 251 259 262 257 252 255 256 268 284 284
163 186 210 229 232 228 227 222 230 238 237 235 253 271 280 277 283 269 263 266 261 256 260 262 261 257 262 269 269 257 237 235 239 242 252 253 257 251 254 249 258 275 281
171 200 216 231 239 235 232 229 230 235 231 245 259 267 279 289 295 286 279 268 265 259 260 262 275 278 269 266 275 272 258 254 240 235 244 250 250 239 232 242 243 246 254
179 199 210 231 238 233 224 230 225 219 222 245 258 265 278 295 309 305 297 275 272 270 267 261 261 271 268 266 272 273 268 262 251 243 240 250 251 238 223 229 236 246 268
196 214 219 222 231 222 226 238 231 227 234 244 259 262 269 291 307 301 296 280 281 284 279 276 273 273 287 290 271 270 279 284 283 268 259 258 261 252 221 203 213 226 264
214 222 227 217 219 218 225 233 226 227 237 245 264 263 265 286 307 312 307 274 276 286 289 289 296 293 293 291 264 258 268 281 296 301 292 287 272 245 213 212 213 219 245
210 209 228 231 237 229 220 220 220 219 230 241 263 283 286 294 314 324 316 275 269 276 290 298 296 304 302 293 271 256 255 265 270 266 277 286 290 278 251 233 224 219 227
187 204 225 235 243 237 214 217 209 206 217 247 263 288 293 304 309 311 308 290 289 272 283 291 298 311 314 305 286 281 277 274 243 251 262 272 277 277 272 260 251 246 245
199 227 238 241 246 241 209 211 216 213 222 242 244 263 278 295 306 312 314 313 310 289 283 293 307 320 326 326 317 317 310 280 245 258 267 273 277 278 281 276 273 260 260
219 245 249 244 260 259 225 209 211 220 226 231 238 252 270 281 291 308 312 311 316 309 305 323 328 332 342 335 337 329 312 282 254 258 268 279 288 286 278 272 273 280 284
215 241 249 241 241 249 244 224 219 226 218 219 226 226 239 264 272 271 268 276 280 279 304 2 18 11 5 358 353 343 328 318 292 284 278 289 292 287 290 289 274 273 267
210 239 242 242 237 234 248 287 275 235 236 226 225 225 241 246 266 265 264 275 281 269 155 125 328 327 326 321 320 318 309 303 302 300 293 283 278 273 278 285 264 258 270
218 241 252 243 236 233 232 237 279 304 264 241 240 241 241 252 255 260 258 272 288 178 166 246 274 287 294 293 292 291 294 297 298 293 286 285 282 279 276 281 282 271 270
226 240 243 238 234 235 233 236 235 244 270 286 273 250 251 253 252 253 242 172 321 179 223 251 266 274 278 280 283 285 294 306 307 294 286 285 282 275 270 273 276 278 277
236 246 245 243 241 241 239 239 242 244 251 266 288 286 256 254 245 227 186 202 228 238 237 247 254 258 262 263 268 272 277 283 294 286 281 282 280 271 272 272 279 293 291
243 252 247 233 236 244 246 245 250 249 253 255 259 261 239 185 234 233 218 226 232 239 239 243 250 253 254 252 257 263 267 274 282 277 278 280 275 264 260 261 267 273 282
235 255 256 244 241 249 255 253 251 250 254 258 257 247 206 216 236 239 236 232 234 240 243 242 246 256 259 262 262 261 257 263 266 266 266 264 258 254 253 244 253 250 257
220 229 239 251 258 257 262 258 257 261 267 271 276 268 208 217 239 245 241 237 236 234 230 230 242 253 255 253 254 260 264 268 267 262 260 261 255 246 237 231 233 226 219
231 259 293 291 276 271 273 272 263 263 269 270 268 265 242 236 238 244 251 247 238 237 233 224 233 264 274 261 242 233 248 263 261 250 241 249 253 238 219 210 212 213 212
206 227 250 272 277 273 271 274 273 269 269 274 271 267 260 255 254 257 261 258 242 244 250 246 244 263 280 282 272 261 259 260 251 233 216 215 225 229 220 213 207 198 194
210 217 224 239 244 257 267 271 273 274 275 277 273 268 265 255 255 268 276 262 238 242 253 261 260 259 267 273 281 279 283 268 255 237 198 192 200 203 199 200 183 175 175
236 240 239 241 245 248 251 256 267 276 280 277 271 262 257 252 249 252 250 242 250 263 272 280 293 294 300 300 310 315 284 260 279 279 223 181 178 170 177 183 167 162 160